Location: Fours
(44.3167°N, 6.7000°E)
Time: 09:12:52
(UTC+00:00)

Cosmos 1812 - Pass Details

Date: 30 November 2020
Orbit: 517 x 520 km, 82.5° (Epoch: 25 January)

Event Time Altitude Azimuth Distance (km) Brightness Sun altitude
Rises 17:44:16 0° 176° (S) 2,625 6.4 -18.9°
Reaches altitude 10° 17:46:25 10° 171° (S) 1,742 5.4 -19.3°
Enters shadow 17:49:31 46° 130° (SE) 703 3.0 -19.8°
